Home   Weather   Eisenhüttenstadt   Past weeks

Flag for Germany Past Weather in Eisenhüttenstadt, Brandenburg, Germany — Yesterday and Last 2 Weeks

Now
64 °F

Passing clouds.


Feels Like: 64 °F
Forecast: 61 / 80 °F
Wind: No wind

Location: Zielona Gora Airport

Current Time: Aug 16, 2017 at 9:58:36 pm

Latest Report: Aug 16, 2017 at 9:00 pm


Visibility: 4 mi

Pressure: 30.18 "Hg

Humidity: 94%

Dew Point: 63 °F

Location of EisenhüttenstadtLocation

Past Weather in Eisenhüttenstadt — Graph

°F

Eisenhüttenstadt Temperature Yesterday

Maximum temperature yesterday: 79 °F (at 1:30 pm)
Minimum temperature yesterday: 52 °F (at 5:00 am)
Average temperature yesterday: 64 °F

High & Low Weather Summary for the Past Weeks

 TemperatureHumidityPressure
High90 °F (Aug 1, 3:00 pm)100% (Aug 2, 12:00 am)30.27 "Hg (Aug 2, 12:00 am)
Low48 °F (Aug 7, 5:00 am)38% (Aug 7, 2:30 pm)29.80 "Hg (Aug 3, 9:00 pm)
Average66 °F78%30.03 "Hg
* Reported Aug 1 3:00 pm — Aug 16 3:00 pm, Eisenhüttenstadt. Weather by CustomWeather, © 2017

Note: Actual official high and low records may vary slightly from our data, if they occured in-between our weather recording intervals... More about our weather records

Advertising

Eisenhüttenstadt Weather History for the Previous 24 Hours

Scroll right to see more
 ConditionsComfort  
Time TempWeatherWind HumidityBarometerVisibility
3:00 pm
Wed, Aug 16
66 °FSprinkles. Fog.3 mph94%30.15 "Hg2 mi
2:30 pm68 °FPartly sunny.7 mph83%30.15 "HgN/A
2:00 pm68 °FBroken clouds.8 mph88%30.12 "HgN/A
1:30 pm70 °FBroken clouds.10 mph78%30.12 "HgN/A
1:00 pm70 °FPartly sunny.9 mph83%30.12 "HgN/A
12:30 pm70 °FPartly sunny.10 mph83%30.12 "HgN/A
12:00 pm68 °FPartly sunny.6 mph88%30.12 "HgN/A
11:30 am66 °FLight rain. Fog.5 mph94%30.09 "Hg3 mi
11:00 am66 °FSprinkles. Fog.6 mph88%30.09 "Hg3 mi
10:30 am66 °FSprinkles. Broken clouds.10 mph88%30.09 "Hg5 mi
10:00 am68 °FScattered clouds.9 mph78%30.07 "HgN/A
9:30 am68 °FScattered clouds.10 mph78%30.07 "HgN/A
9:00 am68 °FScattered clouds.10 mph78%30.07 "HgN/A
8:30 am68 °FSunny.5 mph78%30.04 "Hg10 mi
8:00 am64 °FSunny.5 mph83%30.04 "Hg10 mi
7:30 am63 °FSunny.3 mph88%30.04 "Hg10 mi
7:00 am63 °FSunny.3 mph83%30.04 "Hg10 mi
6:30 am61 °FSunny.1 mph88%30.04 "Hg10 mi
6:00 am61 °FSunny.No wind83%30.04 "Hg10 mi
5:30 am61 °FClear.1 mph83%30.04 "Hg10 mi
5:00 am59 °FPassing clouds.3 mph88%30.04 "HgN/A
4:30 am61 °FClear.No wind83%30.01 "Hg10 mi
4:00 am59 °FPassing clouds.5 mph88%30.04 "HgN/A
3:30 am59 °FClear.No wind88%30.04 "Hg10 mi
3:00 am59 °FClear.1 mph88%30.04 "Hg10 mi
2:30 am61 °FClear.1 mph83%30.04 "Hg10 mi
2:00 am59 °FClear.No wind88%30.04 "Hg10 mi
1:30 am59 °FClear.No wind88%30.04 "Hg10 mi
1:00 am61 °FClear.1 mph83%30.07 "Hg10 mi
12:30 am61 °FClear.1 mph88%30.07 "Hg10 mi
12:00 am61 °FClear.2 mph88%30.07 "Hg10 mi
11:30 pm
Tue, Aug 15
64 °FClear.1 mph73%30.07 "Hg10 mi
11:00 pm66 °FClear.5 mph68%30.07 "Hg10 mi
10:30 pm68 °FClear.3 mph69%30.07 "Hg10 mi
10:00 pm70 °FClear.3 mph64%30.07 "Hg10 mi
9:30 pm70 °FClear.5 mph64%30.07 "Hg10 mi
9:00 pm70 °FClear.6 mph64%30.07 "Hg10 mi
Weather by CustomWeather, © 2017

See weather overviewHow to use our weather pages